DELTA 1 R/B, 515

Orbit data source: Space-Track

DELTA 1 R/B, 515 is space debris originally from a launch on Thu, 13 Dec 1962 UTC launched from the Air Force Eastern Test Range (AFETR). Debris objects in space refer to the collection of defunct objects orbiting the Earth. Examples of debris include non-operational satellites, rocket bodies, and fragments generated from explosions, collisions, or faulty payload assembly.

Loading next visibility...
DELTA 1 R/B details
Identifier
515, 1962-068B
Orbit
Active
Last TLE update2 days ago
Origin
Flag of USGSFC (US)
ManufacturerABL
MissionSpacecraft
Bus & MotorALTAIR, Unknown motor
Mass24 kg wet, 24 kg dry
Launch date (UTC)
1962-12-13 (62 years ago)
Launch vehicleUnknown
Launch site
Air Force Eastern Test Range (AFETR)
Object type
Payload
Rocket body
Debris
Shape & HBRCyl, 1.5 m
Radar Cross Section0.687 m², Medium (>0.1 m² and < 1m²)

Expand to show TLE details & history

TLE from 2 days ago
0 DELTA 1 R/B
1 00515U 62068B   25022.04786382 -.00000027  00000-0  00000-0 0  9992
2 00515  47.5131 293.1843 2839099  17.9924 350.3438  7.79266875768000
Epoch: 2025-01-22T01:08Z
Definitive object data (Epoch: 2025-01-22T01:08:55.434Z)
Latitude-0°
Longitude154.30798°
Altitude1,401.11 km
Speed8.088 km/s
True Right ascension19h 32m 44s
True Declination0° 00' 00"
Sunlit
Object was in daylight at TLE epoch
Visualization TLE readout
Latitude47.50678°
Longitude-112.22597°
Altitude2,782.499 km
Speed7.073 km/s
Apparent Right ascension02h 39m 23s
Apparent Declination13° 56' 14"
Sunlit
Object is in daylight
Visualization observer readout
Local Sidereal Time15:46:32
Azimuth19.743° NNE
Elevation-33.927°
Doppler factor1
Orbital elements
Apogee altitude7,420.848 km
Perigee altitude1,318.132 km
Semi-major axis10,747.627 km
Eccentricity0.2839099
Inclination47.5131°
RAAN293.1843°
Arg. of periapsis17.9924°
True anomaly342.07395°
Mean anomaly350.3438°
Eccentric anomaly346.56407°
Mean motion1.94793 °/min
BSTARUnknown
Orbital period184.81 mins
Loading maneuver chart data...
Loading historical data...
Loading historical data...
Loading historical data...
Loading historical data...
Loading historical data...
Loading historical data...
Loading historical data...
Other satellites on launch #68 in the year 1962 (1962-12-13 UTC)

DELTA 1 R/B Visibility forecast

Observer location: undefined°, undefined

Span
Click to sort rows by Start time (UTC) header in descending order
Start Az.
Max El. time (UTC)
Max El. Az.
Max El.
End time (UTC)
End Az.
17 mins2025-01-23 20:23:17.098Z213.907° SW2025-01-23 20:29:17.098Z148.011° SSE40.815°2025-01-23 20:40:17.098Z62.03° ENE
30 mins2025-01-23 23:37:17.098Z280.935° WNW2025-01-23 23:45:17.098Z353.59° N41.968°2025-01-24 00:07:17.098Z81.825° E
54 mins2025-01-24 02:51:17.098Z298.414° NW2025-01-24 03:06:17.098Z196.437° SSW44.91°2025-01-24 03:45:17.098Z131.82° SE
56 mins2025-01-24 06:08:17.098Z288.954° WNW2025-01-24 06:28:17.098Z234.921° WSW30.217°2025-01-24 07:04:17.098Z183.578° SSW
|